Location: Amanico Ergina Village
(37.7824°N, 122.4366°W)
Time: 21:03:03
(UTC+00:00)

Lacrosse 5 rocket - Pass Details

Date: 29 October 2020
Orbit: 458 x 638 km, 57.0° (Epoch: 24 November)

Event Time Altitude Azimuth Distance (km) Brightness Sun altitude
Exits shadow 12:18:32 10° 18° (NNE) 1,642 4.0 -27.0°
Drops below altitude 10° 12:18:35 10° 18° (NNE) 1,656 4.0 -27.0°
Sets 12:21:04 0° 33° (NNE) 2,567 5.2 -26.5°
